Forrest, Australia

2:57 PM AWST on February 21, 2017 (GMT +0800)
Forrest

Weather History for YFRT - January, 2013

Change the Weather History Date:

Sunday, January 6, 2013

  Actual Average Record
Temperature  
Mean Temperature 83 °F -  
Max Temperature 104 °F 91 °F - ()
Min Temperature 62 °F 60 °F - ()
Cooling Degree Days 18    
Growing Degree Days 33 (Base 50)    
Moisture  
Dew Point 57 °F    
Average Humidity 55    
Maximum Humidity 100    
Minimum Humidity 8    
Precipitation  
Precipitation 0.00 in 0.02 in - ()
Sea Level Pressure  
Sea Level Pressure 30.02 in    
Wind  
Wind Speed 14 mph ()    
Max Wind Speed 23 mph    
Max Gust Speed 32 mph    
T = Trace of Precipitation, MM = Missing Value Source: Averaged Metar Reports

Daily Weather History Graph

Daily Weather History Graph

Search for Another Location

Airport or City:

Trip Planner

Search our weather history database for the weather conditions in past years. The results will help you decide how hot, cold, wet, or windy it might be!

Date:

Astronomy

Jan. 06, 2013 Rise Set
Actual Time 4:31 AM AWST 6:34 PM AWST
Civil Twilight 4:04 AM AWST 7:02 PM AWST
Nautical Twilight 3:30 AM AWST 7:35 PM AWST
Astronomical Twilight 2:54 AM AWST 8:11 PM AWST
Moon 11:57 PM AWST (1/6) 12:41 PM AWST (1/6)
Length of Visible Light 14h 58m
Length of Day
14h 03m
Last Quarter, 39% of the Moon is Illuminated
Jan 6
Last Quarter
Jan 12
New
Jan 19
First Quarter
Jan 27
Full
Feb 3
Last Quarter

Hourly Weather History & Observations

Time (AWST) Temp. Heat Index Dew Point Humidity Pressure Visibility Wind Dir Wind Speed Gust Speed Precip Events Conditions
12:00 AM 65 °F - 59 °F 74% 30.04 in - ESE 13.8 mph - -  
12:00 AM 66.2 °F - 59.0 °F 78% 30.06 in - ESE 13.8 mph - N/A   Unknown
1:00 AM 64.4 °F - 59.0 °F 83% 30.04 in - SE 15.0 mph - N/A   Unknown
2:00 AM 64 °F - 61 °F 88% 30.03 in - ESE 15.0 mph - -  
2:00 AM 64.4 °F - 60.8 °F 88% 30.04 in - ESE 15.0 mph - N/A   Unknown
3:00 AM 64 °F - 63 °F 94% 30.05 in - ESE 11.5 mph - -  
3:00 AM 64.4 °F - 62.6 °F 94% 30.06 in - ESE 11.5 mph - N/A   Unknown
4:00 AM 62.6 °F - 62.6 °F 100% 30.06 in - ESE 11.5 mph - N/A   Unknown
5:00 AM 64 °F - 63 °F 97% 30.06 in - ESE 15.0 mph - -  
5:00 AM 64.4 °F - 62.6 °F 94% 30.06 in - ESE 15.0 mph - N/A   Unknown
6:00 AM 67 °F - 63 °F 81% 30.07 in - ESE 19.6 mph - -  
6:00 AM 66.2 °F - 62.6 °F 88% 30.09 in - ESE 19.6 mph - N/A   Unknown
7:00 AM 69.8 °F - 59.0 °F 68% 30.09 in - East 18.4 mph - N/A   Unknown
8:00 AM 78 °F - 56 °F 36% 30.08 in - East 23.0 mph - -  
8:00 AM 78.8 °F - 55.4 °F 44% 30.09 in - East 23.0 mph - N/A   Unknown
9:00 AM 84.2 °F 82.8 °F 53.6 °F 35% 30.06 in - East 20.7 mph - N/A   Unknown
10:00 AM 89.6 °F 87.3 °F 53.6 °F 29% 30.04 in - East 19.6 mph - N/A   Unknown
11:00 AM 93 °F - 52 °F 16% 30.02 in - East 16.1 mph - -  
11:00 AM 93.2 °F - 51.8 °F 24% 30.04 in - East 16.1 mph - N/A   Unknown
12:00 PM 98 °F - 50 °F 12% 29.99 in - ESE 11.5 mph - -  
12:00 PM 98.6 °F - 50.0 °F 19% 30.01 in - ESE 11.5 mph - N/A   Unknown
1:00 PM 100.4 °F - 48.2 °F 17% 29.98 in - ESE 11.5 mph - N/A   Unknown
3:00 PM 103 °F - 47 °F 8% 29.93 in - East 11.5 mph - -  
3:00 PM 104.0 °F - 46.4 °F 14% 29.95 in - East 11.5 mph - N/A   Unknown
3:59 PM 102.2 °F - 48.2 °F 16% 29.95 in - SE 17.3 mph 28.8 mph N/A   Unknown
4:00 PM 100.4 °F - 50.0 °F 18% 29.95 in - SE 18.4 mph 32.2 mph N/A   Unknown
5:00 PM 92 °F - 53 °F 18% 29.94 in - SE 23.0 mph - -  
5:00 PM 91.4 °F 89.1 °F 53.6 °F 28% 29.95 in - SE 23.0 mph - N/A   Unknown
6:00 PM 85 °F - 55 °F 26% 29.96 in - SE 20.7 mph - -  
6:00 PM 86.0 °F 84.5 °F 55.4 °F 35% 29.98 in - SE 20.7 mph - N/A   Unknown
7:00 PM 78.8 °F - 57.2 °F 47% 30.01 in - SE 21.9 mph - N/A   Unknown
8:00 PM 73 °F - 59 °F 53% 29.99 in - SE 15.0 mph - -  
8:00 PM 73.4 °F - 59.0 °F 61% 30.01 in - SE 15.0 mph - N/A   Unknown
9:00 PM 70 °F - 60 °F 62% 30.01 in - SE 16.1 mph - -  
9:00 PM 69.8 °F - 59.0 °F 68% 30.04 in - SE 16.1 mph - N/A   Unknown
10:00 PM 68.0 °F - 62.6 °F 83% 30.01 in - ESE 15.0 mph - N/A   Unknown
11:00 PM 67 °F - 66 °F 96% 29.99 in - SE 12.7 mph - -  
11:00 PM 66.2 °F - 66.2 °F 100% 30.01 in - SE 12.7 mph - N/A   Unknown